Year,Month,Day,Hour,Minute,Value (Times are PST for temperature in C)
2002,06,22,00,00,17.90
2002,06,22,00,01,17.90
2002,06,22,00,02,17.90
2002,06,22,00,03,17.90
2002,06,22,00,04,17.90
2002,06,22,00,05,17.90
2002,06,22,00,06,17.90
2002,06,22,00,07,17.90
2002,06,22,00,08,17.90
2002,06,22,00,09,17.90
2002,06,22,00,10,17.80
2002,06,22,00,11,17.80
2002,06,22,00,12,17.80
2002,06,22,00,13,17.80
2002,06,22,00,14,17.70
2002,06,22,00,15,17.70
2002,06,22,00,16,17.60
2002,06,22,00,17,17.60
2002,06,22,00,18,17.60
2002,06,22,00,19,17.60
2002,06,22,00,20,17.50
2002,06,22,00,21,17.50
2002,06,22,00,22,17.50
2002,06,22,00,23,17.50
2002,06,22,00,24,17.50
2002,06,22,00,25,17.40
2002,06,22,00,26,17.40
2002,06,22,00,27,17.30
2002,06,22,00,28,17.10
2002,06,22,00,29,17.00
2002,06,22,00,30,16.80
2002,06,22,00,31,16.70
2002,06,22,00,32,16.60
2002,06,22,00,33,16.60
2002,06,22,00,34,16.50
2002,06,22,00,35,16.40
2002,06,22,00,36,16.40
2002,06,22,00,37,16.40
2002,06,22,00,38,16.40
2002,06,22,00,39,16.40
2002,06,22,00,40,16.40
2002,06,22,00,41,16.40
2002,06,22,00,42,16.40
2002,06,22,00,43,16.40
2002,06,22,00,44,16.40
2002,06,22,00,45,16.40
2002,06,22,00,46,16.40
2002,06,22,00,47,16.40
2002,06,22,00,48,16.40
2002,06,22,00,49,16.40
2002,06,22,00,50,16.40
2002,06,22,00,51,16.40
2002,06,22,00,52,16.40
2002,06,22,00,53,16.40
2002,06,22,00,54,16.40
2002,06,22,00,55,16.40
2002,06,22,00,56,16.40
2002,06,22,00,57,16.40
2002,06,22,00,58,16.40
2002,06,22,00,59,16.40
2002,06,22,01,00,16.40
2002,06,22,01,01,16.40
2002,06,22,01,02,16.40
2002,06,22,01,03,16.40
2002,06,22,01,04,16.50
2002,06,22,01,05,16.60
2002,06,22,01,06,16.60
2002,06,22,01,07,16.70
2002,06,22,01,08,16.70
2002,06,22,01,09,16.70
2002,06,22,01,10,16.70
2002,06,22,01,11,16.70
2002,06,22,01,12,16.70
2002,06,22,01,13,16.70
2002,06,22,01,14,16.70
2002,06,22,01,15,16.70
2002,06,22,01,16,16.70
2002,06,22,01,17,16.70
2002,06,22,01,18,16.70
2002,06,22,01,19,16.70
2002,06,22,01,20,16.70
2002,06,22,01,21,16.70
2002,06,22,01,22,16.70
2002,06,22,01,23,16.70
2002,06,22,01,24,16.70
2002,06,22,01,25,16.70
2002,06,22,01,26,16.70
2002,06,22,01,27,16.70
2002,06,22,01,28,16.70
2002,06,22,01,29,16.70
2002,06,22,01,30,16.70
2002,06,22,01,31,16.70
2002,06,22,01,32,16.70
2002,06,22,01,33,16.70
2002,06,22,01,34,16.70
2002,06,22,01,35,16.70
2002,06,22,01,36,16.70
2002,06,22,01,37,16.70
2002,06,22,01,38,16.70
2002,06,22,01,39,16.60
2002,06,22,01,40,16.60
2002,06,22,01,41,16.60
2002,06,22,01,42,16.60
2002,06,22,01,43,16.50
2002,06,22,01,44,16.40
2002,06,22,01,45,16.40
2002,06,22,01,46,16.40
2002,06,22,01,47,16.40
2002,06,22,01,48,16.40
2002,06,22,01,49,16.40
2002,06,22,01,50,16.50
2002,06,22,01,51,16.40
2002,06,22,01,52,16.40
2002,06,22,01,53,16.40
2002,06,22,01,54,16.40
2002,06,22,01,55,16.40
2002,06,22,01,56,16.40
2002,06,22,01,57,16.40
2002,06,22,01,58,16.30
2002,06,22,01,59,16.30
2002,06,22,02,00,16.20
2002,06,22,02,01,16.20
2002,06,22,02,02,16.10
2002,06,22,02,03,16.10
2002,06,22,02,04,16.10
2002,06,22,02,05,16.10
2002,06,22,02,06,15.90
2002,06,22,02,07,15.90
2002,06,22,02,08,15.80
2002,06,22,02,09,15.80
2002,06,22,02,10,15.80
2002,06,22,02,11,15.70
2002,06,22,02,12,15.60
2002,06,22,02,13,15.50
2002,06,22,02,14,15.40
2002,06,22,02,15,15.40
2002,06,22,02,16,15.30
2002,06,22,02,17,15.30
2002,06,22,02,18,15.30
2002,06,22,02,19,15.30
2002,06,22,02,20,15.20
2002,06,22,02,21,15.20
2002,06,22,02,22,15.20
2002,06,22,02,23,15.10
2002,06,22,02,24,15.10
2002,06,22,02,25,15.00
2002,06,22,02,26,15.00
2002,06,22,02,27,14.90
2002,06,22,02,28,14.90
2002,06,22,02,29,14.80
2002,06,22,02,30,14.80
2002,06,22,02,31,14.80
2002,06,22,02,32,14.80
2002,06,22,02,33,14.80
2002,06,22,02,34,14.80
2002,06,22,02,35,14.80
2002,06,22,02,36,14.80
2002,06,22,02,37,14.80
2002,06,22,02,38,14.80
2002,06,22,02,39,14.80
2002,06,22,02,40,14.80
2002,06,22,02,41,14.80
2002,06,22,02,42,14.80
2002,06,22,02,43,14.80
2002,06,22,02,44,14.80
2002,06,22,02,45,14.80
2002,06,22,02,46,14.80
2002,06,22,02,47,14.80
2002,06,22,02,48,14.80
2002,06,22,02,49,14.80
2002,06,22,02,50,14.80
2002,06,22,02,51,14.80
2002,06,22,02,52,14.80
2002,06,22,02,53,14.80
2002,06,22,02,54,14.80
2002,06,22,02,55,14.70
2002,06,22,02,56,14.70
2002,06,22,02,57,14.70
2002,06,22,02,58,14.70
2002,06,22,02,59,14.70
2002,06,22,03,00,14.70
2002,06,22,03,01,14.70
2002,06,22,03,02,14.70
2002,06,22,03,03,14.70
2002,06,22,03,04,14.70
2002,06,22,03,05,14.70
2002,06,22,03,06,14.70
2002,06,22,03,07,14.70
2002,06,22,03,08,14.70
2002,06,22,03,09,14.70
2002,06,22,03,10,14.70
2002,06,22,03,11,14.60
2002,06,22,03,12,14.60
2002,06,22,03,13,14.60
2002,06,22,03,14,14.60
2002,06,22,03,15,14.60
2002,06,22,03,16,14.60
2002,06,22,03,17,14.60
2002,06,22,03,18,14.60
2002,06,22,03,19,14.60
2002,06,22,03,20,14.60
2002,06,22,03,21,14.60
2002,06,22,03,22,14.60
2002,06,22,03,23,14.60
2002,06,22,03,24,14.60
2002,06,22,03,25,14.60
2002,06,22,03,26,14.50
2002,06,22,03,27,14.40
2002,06,22,03,28,14.40
2002,06,22,03,29,14.40
2002,06,22,03,30,14.40
2002,06,22,03,31,14.40
2002,06,22,03,32,14.40
2002,06,22,03,33,14.40
2002,06,22,03,34,14.40
2002,06,22,03,35,14.40
2002,06,22,03,36,14.40
2002,06,22,03,37,14.40
2002,06,22,03,38,14.40
2002,06,22,03,39,14.40
2002,06,22,03,40,14.40
2002,06,22,03,41,14.40
2002,06,22,03,42,14.30
2002,06,22,03,43,14.30
2002,06,22,03,44,14.30
2002,06,22,03,45,14.30
2002,06,22,03,46,14.20
2002,06,22,03,47,14.20
2002,06,22,03,48,14.20
2002,06,22,03,49,14.20
2002,06,22,03,50,14.20
2002,06,22,03,51,14.20
2002,06,22,03,52,14.20
2002,06,22,03,53,14.20
2002,06,22,03,54,14.10
2002,06,22,03,55,14.10
2002,06,22,03,56,14.10
2002,06,22,03,57,14.10
2002,06,22,03,58,14.10
2002,06,22,03,59,14.00
2002,06,22,04,00,14.00
2002,06,22,04,01,14.00
2002,06,22,04,02,14.00
2002,06,22,04,03,14.00
2002,06,22,04,04,14.00
2002,06,22,04,05,14.00
2002,06,22,04,06,14.00
2002,06,22,04,07,14.00
2002,06,22,04,08,14.00
2002,06,22,04,09,14.00
2002,06,22,04,10,14.00
2002,06,22,04,11,14.00
2002,06,22,04,12,14.00
2002,06,22,04,13,14.00
2002,06,22,04,14,14.00
2002,06,22,04,15,14.00
2002,06,22,04,16,14.00
2002,06,22,04,17,14.00
2002,06,22,04,18,14.00
2002,06,22,04,19,14.00
2002,06,22,04,20,14.00
2002,06,22,04,21,13.90
2002,06,22,04,22,13.90
2002,06,22,04,23,13.80
2002,06,22,04,24,13.90
2002,06,22,04,25,13.80
2002,06,22,04,26,13.80
2002,06,22,04,27,13.80
2002,06,22,04,28,13.80
2002,06,22,04,29,13.80
2002,06,22,04,30,13.70
2002,06,22,04,31,13.70
2002,06,22,04,32,13.70
2002,06,22,04,33,13.70
2002,06,22,04,34,13.70
2002,06,22,04,35,13.70
2002,06,22,04,36,13.70
2002,06,22,04,37,13.60
2002,06,22,04,38,13.60
2002,06,22,04,39,13.60
2002,06,22,04,40,13.60
2002,06,22,04,41,13.50
2002,06,22,04,42,13.50
2002,06,22,04,43,13.50
2002,06,22,04,44,13.50
2002,06,22,04,45,13.40
2002,06,22,04,46,13.40
2002,06,22,04,47,13.40
2002,06,22,04,48,13.40
2002,06,22,04,49,13.40
2002,06,22,04,50,13.40
2002,06,22,04,51,13.40
2002,06,22,04,52,13.40
2002,06,22,04,53,13.40
2002,06,22,04,54,13.40
2002,06,22,04,55,13.40
2002,06,22,04,56,13.40
2002,06,22,04,57,13.40
2002,06,22,04,58,13.30
2002,06,22,04,59,13.30
2002,06,22,05,00,13.20
2002,06,22,05,01,13.20
2002,06,22,05,02,13.10
2002,06,22,05,03,13.10
2002,06,22,05,04,13.00
2002,06,22,05,05,12.90
2002,06,22,05,06,12.90
2002,06,22,05,07,12.80
2002,06,22,05,08,12.80
2002,06,22,05,09,12.80
2002,06,22,05,10,12.70
2002,06,22,05,11,12.70
2002,06,22,05,12,12.70
2002,06,22,05,13,12.60
2002,06,22,05,14,12.60
2002,06,22,05,15,12.50
2002,06,22,05,16,12.50
2002,06,22,05,17,12.50
2002,06,22,05,18,12.50
2002,06,22,05,19,12.50
2002,06,22,05,20,12.50
2002,06,22,05,21,12.40
2002,06,22,05,22,12.40
2002,06,22,05,23,12.40
2002,06,22,05,24,12.40
2002,06,22,05,25,12.40
2002,06,22,05,26,12.40
2002,06,22,05,27,12.40
2002,06,22,05,28,12.40
2002,06,22,05,29,12.30
2002,06,22,05,30,12.30
2002,06,22,05,31,12.30
2002,06,22,05,32,12.30
2002,06,22,05,33,12.30
2002,06,22,05,34,12.30
2002,06,22,05,35,12.30
2002,06,22,05,36,12.30
2002,06,22,05,37,12.30
2002,06,22,05,38,12.30
2002,06,22,05,39,12.40
2002,06,22,05,40,12.40
2002,06,22,05,41,12.40
2002,06,22,05,42,12.40
2002,06,22,05,43,12.50
2002,06,22,05,44,12.50
2002,06,22,05,45,12.60
2002,06,22,05,46,12.60
2002,06,22,05,47,12.60
2002,06,22,05,48,12.60
2002,06,22,05,49,12.60
2002,06,22,05,50,12.60
2002,06,22,05,51,12.70
2002,06,22,05,52,12.70
2002,06,22,05,53,12.70
2002,06,22,05,54,12.70
2002,06,22,05,55,12.80
2002,06,22,05,56,12.80
2002,06,22,05,57,12.80
2002,06,22,05,58,12.80
2002,06,22,05,59,12.80
2002,06,22,06,00,12.80
2002,06,22,06,01,12.80
2002,06,22,06,02,12.80
2002,06,22,06,03,12.80
2002,06,22,06,04,12.80
2002,06,22,06,05,12.80
2002,06,22,06,06,12.80
2002,06,22,06,07,12.80
2002,06,22,06,08,12.80
2002,06,22,06,09,12.90
2002,06,22,06,10,12.90
2002,06,22,06,11,12.90
2002,06,22,06,12,13.00
2002,06,22,06,13,13.10
2002,06,22,06,14,13.10
2002,06,22,06,15,13.10
2002,06,22,06,16,13.10
2002,06,22,06,17,13.20
2002,06,22,06,18,13.30
2002,06,22,06,19,13.30
2002,06,22,06,20,13.30
2002,06,22,06,21,13.30
2002,06,22,06,22,13.30
2002,06,22,06,23,13.30
2002,06,22,06,24,13.40
2002,06,22,06,25,13.40
2002,06,22,06,26,13.50
2002,06,22,06,27,13.50
2002,06,22,06,28,13.50
2002,06,22,06,29,13.50
2002,06,22,06,30,13.50
2002,06,22,06,31,13.50
2002,06,22,06,32,13.60
2002,06,22,06,33,13.50
2002,06,22,06,34,13.50
2002,06,22,06,35,13.50
2002,06,22,06,36,13.50
2002,06,22,06,37,13.50
2002,06,22,06,38,13.50
2002,06,22,06,39,13.50
2002,06,22,06,40,13.50
2002,06,22,06,41,13.50
2002,06,22,06,42,13.50
2002,06,22,06,43,13.60
2002,06,22,06,44,13.70
2002,06,22,06,45,13.80
2002,06,22,06,46,13.80
2002,06,22,06,47,13.90
2002,06,22,06,48,13.90
2002,06,22,06,49,14.00
2002,06,22,06,50,14.00
2002,06,22,06,51,14.10
2002,06,22,06,52,14.10
2002,06,22,06,53,14.10
2002,06,22,06,54,14.20
2002,06,22,06,55,14.20
2002,06,22,06,56,14.20
2002,06,22,06,57,14.30
2002,06,22,06,58,14.40
2002,06,22,06,59,14.50
2002,06,22,07,00,14.50
2002,06,22,07,01,14.60
2002,06,22,07,02,14.60
2002,06,22,07,03,14.60
2002,06,22,07,04,14.70
2002,06,22,07,05,14.70
2002,06,22,07,06,14.80
2002,06,22,07,07,14.90
2002,06,22,07,08,15.00
2002,06,22,07,09,15.00
2002,06,22,07,10,15.10
2002,06,22,07,11,15.20
2002,06,22,07,12,15.40
2002,06,22,07,13,15.40
2002,06,22,07,14,15.40
2002,06,22,07,15,15.40
2002,06,22,07,16,15.40
2002,06,22,07,17,15.40
2002,06,22,07,18,15.40
2002,06,22,07,19,15.40
2002,06,22,07,20,15.40
2002,06,22,07,21,15.40
2002,06,22,07,22,15.40
2002,06,22,07,23,15.40
2002,06,22,07,24,15.50
2002,06,22,07,25,15.60
2002,06,22,07,26,15.70
2002,06,22,07,27,15.90
2002,06,22,07,28,15.80
2002,06,22,07,29,15.80
2002,06,22,07,30,15.80
2002,06,22,07,31,15.80
2002,06,22,07,32,15.80
2002,06,22,07,33,15.80
2002,06,22,07,34,15.60
2002,06,22,07,35,15.60
2002,06,22,07,36,15.50
2002,06,22,07,37,15.50
2002,06,22,07,38,15.40
2002,06,22,07,39,15.20
2002,06,22,07,40,15.20
2002,06,22,07,41,15.10
2002,06,22,07,42,15.20
2002,06,22,07,43,15.20
2002,06,22,07,44,15.20
2002,06,22,07,45,15.30
2002,06,22,07,46,15.50
2002,06,22,07,47,15.60
2002,06,22,07,48,15.80
2002,06,22,07,49,15.80
2002,06,22,07,50,16.00
2002,06,22,07,51,16.10
2002,06,22,07,52,16.10
2002,06,22,07,53,16.10
2002,06,22,07,54,16.10
2002,06,22,07,55,16.10
2002,06,22,07,56,16.10
2002,06,22,07,57,16.10
2002,06,22,07,58,16.10
2002,06,22,07,59,16.20
2002,06,22,08,00,16.10
2002,06,22,08,01,16.10
2002,06,22,08,02,16.20
2002,06,22,08,03,16.30
2002,06,22,08,04,16.30
2002,06,22,08,05,16.30
2002,06,22,08,06,16.40
2002,06,22,08,07,16.40
2002,06,22,08,08,16.40
2002,06,22,08,09,16.50
2002,06,22,08,10,16.60
2002,06,22,08,11,16.70
2002,06,22,08,12,16.90
2002,06,22,08,13,16.90
2002,06,22,08,14,16.90
2002,06,22,08,15,16.90
2002,06,22,08,16,16.90
2002,06,22,08,17,16.90
2002,06,22,08,18,16.90
2002,06,22,08,19,17.00
2002,06,22,08,20,17.00
2002,06,22,08,21,17.00
2002,06,22,08,22,17.10
2002,06,22,08,23,17.20
2002,06,22,08,24,17.20
2002,06,22,08,25,17.30
2002,06,22,08,26,17.20
2002,06,22,08,27,17.20
2002,06,22,08,28,17.30
2002,06,22,08,29,17.30
2002,06,22,08,30,17.40
2002,06,22,08,31,17.50
2002,06,22,08,32,17.50
2002,06,22,08,33,17.70
2002,06,22,08,34,17.70
2002,06,22,08,35,17.80
2002,06,22,08,36,17.90
2002,06,22,08,37,17.90
2002,06,22,08,38,18.00
2002,06,22,08,39,18.10
2002,06,22,08,40,18.10
2002,06,22,08,41,18.10
2002,06,22,08,42,17.90
2002,06,22,08,43,17.90
2002,06,22,08,44,17.90
2002,06,22,08,45,17.90
2002,06,22,08,46,17.80
2002,06,22,08,47,17.70
2002,06,22,08,48,17.50
2002,06,22,08,49,17.50
2002,06,22,08,50,17.60
2002,06,22,08,51,17.70
2002,06,22,08,52,17.70
2002,06,22,08,53,17.60
2002,06,22,08,54,17.50
2002,06,22,08,55,17.40
2002,06,22,08,56,17.30
2002,06,22,08,57,17.30
2002,06,22,08,58,17.40
2002,06,22,08,59,17.50
2002,06,22,09,00,17.50
2002,06,22,09,01,17.50
2002,06,22,09,02,17.60
2002,06,22,09,03,17.80
2002,06,22,09,04,17.70
2002,06,22,09,05,17.50
2002,06,22,09,06,17.40
2002,06,22,09,07,17.40
2002,06,22,09,08,17.40
2002,06,22,09,09,17.40
2002,06,22,09,10,17.30
2002,06,22,09,11,17.30
2002,06,22,09,12,17.30
2002,06,22,09,13,17.30
2002,06,22,09,14,17.30
2002,06,22,09,15,17.30
2002,06,22,09,16,17.40
2002,06,22,09,17,17.50
2002,06,22,09,18,17.70
2002,06,22,09,19,17.80
2002,06,22,09,20,17.80
2002,06,22,09,21,17.80
2002,06,22,09,22,17.60
2002,06,22,09,23,17.50
2002,06,22,09,24,17.20
2002,06,22,09,25,17.00
2002,06,22,09,26,16.80
2002,06,22,09,27,16.80
2002,06,22,09,28,16.80
2002,06,22,09,29,16.90
2002,06,22,09,30,16.90
2002,06,22,09,31,16.70
2002,06,22,09,32,16.60
2002,06,22,09,33,16.50
2002,06,22,09,34,16.60
2002,06,22,09,35,16.60
2002,06,22,09,36,16.80
2002,06,22,09,37,17.00
2002,06,22,09,38,16.90
2002,06,22,09,39,16.70
2002,06,22,09,40,16.70
2002,06,22,09,41,16.70
2002,06,22,09,42,16.60
2002,06,22,09,43,16.50
2002,06,22,09,44,16.40
2002,06,22,09,45,16.40
2002,06,22,09,46,16.30
2002,06,22,09,47,16.30
2002,06,22,09,48,16.30
2002,06,22,09,49,16.20
2002,06,22,09,50,16.20
2002,06,22,09,51,16.10
2002,06,22,09,52,16.00
2002,06,22,09,53,16.00
2002,06,22,09,54,16.10
2002,06,22,09,55,16.20
2002,06,22,09,56,16.20
2002,06,22,09,57,16.30
2002,06,22,09,58,16.40
2002,06,22,09,59,16.50
2002,06,22,10,00,16.60
2002,06,22,10,01,16.60
2002,06,22,10,02,16.80
2002,06,22,10,03,16.90
2002,06,22,10,04,17.00
2002,06,22,10,05,17.10
2002,06,22,10,06,17.30
2002,06,22,10,07,17.50
2002,06,22,10,08,17.50
2002,06,22,10,09,17.60
2002,06,22,10,10,17.60
2002,06,22,10,11,17.50
2002,06,22,10,12,17.50
2002,06,22,10,13,17.50
2002,06,22,10,14,17.60
2002,06,22,10,15,17.70
2002,06,22,10,16,17.70
2002,06,22,10,17,17.60
2002,06,22,10,18,17.60
2002,06,22,10,19,17.50
2002,06,22,10,20,17.50
2002,06,22,10,21,17.50
2002,06,22,10,22,17.50
2002,06,22,10,23,17.60
2002,06,22,10,24,17.70
2002,06,22,10,25,17.80
2002,06,22,10,26,17.90
2002,06,22,10,27,17.90
2002,06,22,10,28,18.00
2002,06,22,10,29,18.10
2002,06,22,10,30,18.10
2002,06,22,10,31,18.20
2002,06,22,10,32,18.20
2002,06,22,10,33,18.20
2002,06,22,10,34,18.30
2002,06,22,10,35,18.60
2002,06,22,10,36,18.70
2002,06,22,10,37,18.60
2002,06,22,10,38,18.50
2002,06,22,10,39,18.60
2002,06,22,10,40,18.60
2002,06,22,10,41,18.60
2002,06,22,10,42,18.60
2002,06,22,10,43,18.50
2002,06,22,10,44,18.50
2002,06,22,10,45,18.60
2002,06,22,10,46,18.70
2002,06,22,10,47,18.80
2002,06,22,10,48,19.00
2002,06,22,10,49,19.10
2002,06,22,10,50,19.40
2002,06,22,10,51,19.60
2002,06,22,10,52,19.90
2002,06,22,10,53,20.20
2002,06,22,10,54,20.30
2002,06,22,10,55,20.40
2002,06,22,10,56,20.50
2002,06,22,10,57,20.70
2002,06,22,10,58,20.70
2002,06,22,10,59,20.90
2002,06,22,11,00,21.00
2002,06,22,11,01,21.00
2002,06,22,11,02,21.10
2002,06,22,11,03,21.30
2002,06,22,11,04,21.50
2002,06,22,11,05,21.40
2002,06,22,11,06,21.50
2002,06,22,11,07,21.50
2002,06,22,11,08,21.50
2002,06,22,11,09,21.70
2002,06,22,11,10,21.80
2002,06,22,11,11,21.90
2002,06,22,11,12,22.00
2002,06,22,11,13,22.20
2002,06,22,11,14,22.40
2002,06,22,11,15,22.60
2002,06,22,11,16,22.70
2002,06,22,11,17,22.70
2002,06,22,11,18,22.70
2002,06,22,11,19,22.80
2002,06,22,11,20,22.80
2002,06,22,11,21,22.80
2002,06,22,11,22,22.80
2002,06,22,11,23,22.70
2002,06,22,11,24,22.80
2002,06,22,11,25,22.90
2002,06,22,11,26,23.10
2002,06,22,11,27,23.20
2002,06,22,11,28,23.10
2002,06,22,11,29,23.20
2002,06,22,11,30,23.30
2002,06,22,11,31,23.40
2002,06,22,11,32,23.60
2002,06,22,11,33,23.60
2002,06,22,11,34,23.60
2002,06,22,11,35,23.50
2002,06,22,11,36,23.30
2002,06,22,11,37,23.30
2002,06,22,11,38,23.30
2002,06,22,11,39,23.30
2002,06,22,11,40,23.30
2002,06,22,11,41,23.40
2002,06,22,11,42,23.40
2002,06,22,11,43,23.40
2002,06,22,11,44,23.50
2002,06,22,11,45,23.70
2002,06,22,11,46,23.90
2002,06,22,11,47,24.10
2002,06,22,11,48,24.10
2002,06,22,11,49,24.20
2002,06,22,11,50,24.10
2002,06,22,11,51,24.10
2002,06,22,11,52,24.10
2002,06,22,11,53,24.00
2002,06,22,11,54,24.00
2002,06,22,11,55,24.10
2002,06,22,11,56,24.10
2002,06,22,11,57,24.10
2002,06,22,11,58,24.10
2002,06,22,11,59,24.20
2002,06,22,12,00,24.40
2002,06,22,12,01,24.50
2002,06,22,12,02,24.60
2002,06,22,12,03,24.80
2002,06,22,12,04,24.80
2002,06,22,12,05,25.00
2002,06,22,12,06,25.10
2002,06,22,12,07,25.40
2002,06,22,12,08,25.50
2002,06,22,12,09,25.60
2002,06,22,12,10,25.80
2002,06,22,12,11,25.80
2002,06,22,12,12,25.80
2002,06,22,12,13,25.60
2002,06,22,12,14,25.50
2002,06,22,12,15,25.30
2002,06,22,12,16,25.00
2002,06,22,12,17,25.00
2002,06,22,12,18,24.90
2002,06,22,12,19,24.80
2002,06,22,12,20,24.90
2002,06,22,12,21,24.80
2002,06,22,12,22,24.80
2002,06,22,12,23,24.80
2002,06,22,12,24,24.90
2002,06,22,12,25,24.90
2002,06,22,12,26,25.10
2002,06,22,12,27,25.20
2002,06,22,12,28,25.40
2002,06,22,12,29,25.70
2002,06,22,12,30,25.80
2002,06,22,12,31,25.90
2002,06,22,12,32,25.80
2002,06,22,12,33,25.70
2002,06,22,12,34,25.90
2002,06,22,12,35,25.80
2002,06,22,12,36,25.70
2002,06,22,12,37,25.70
2002,06,22,12,38,25.80
2002,06,22,12,39,25.70
2002,06,22,12,40,25.50
2002,06,22,12,41,25.40
2002,06,22,12,42,25.30
2002,06,22,12,43,25.30
2002,06,22,12,44,25.30
2002,06,22,12,45,25.30
2002,06,22,12,46,25.30
2002,06,22,12,47,25.30
2002,06,22,12,48,25.20
2002,06,22,12,49,25.30
2002,06,22,12,50,25.40
2002,06,22,12,51,25.60
2002,06,22,12,52,25.30
2002,06,22,12,53,24.90
2002,06,22,12,54,25.00
2002,06,22,12,55,25.00
2002,06,22,12,56,24.90
2002,06,22,12,57,24.80
2002,06,22,12,58,24.70
2002,06,22,12,59,24.50
2002,06,22,13,00,24.60
2002,06,22,13,01,24.60
2002,06,22,13,02,24.50
2002,06,22,13,03,24.50
2002,06,22,13,04,24.50
2002,06,22,13,05,24.70
2002,06,22,13,06,24.90
2002,06,22,13,07,25.00
2002,06,22,13,08,25.10
2002,06,22,13,09,25.30
2002,06,22,13,10,25.50
2002,06,22,13,11,25.50
2002,06,22,13,12,25.50
2002,06,22,13,13,25.60
2002,06,22,13,14,25.70
2002,06,22,13,15,25.90
2002,06,22,13,16,25.80
2002,06,22,13,17,26.00
2002,06,22,13,18,26.10
2002,06,22,13,19,26.10
2002,06,22,13,20,26.10
2002,06,22,13,21,26.10
2002,06,22,13,22,26.10
2002,06,22,13,23,26.20
2002,06,22,13,24,26.40
2002,06,22,13,25,26.50
2002,06,22,13,26,26.30
2002,06,22,13,27,26.00
2002,06,22,13,28,25.90
2002,06,22,13,29,25.80
2002,06,22,13,30,25.60
2002,06,22,13,31,25.60
2002,06,22,13,32,25.50
2002,06,22,13,33,25.30
2002,06,22,13,34,25.30
2002,06,22,13,35,25.30
2002,06,22,13,36,25.10
2002,06,22,13,37,25.20
2002,06,22,13,38,25.10
2002,06,22,13,39,25.20
2002,06,22,13,40,25.30
2002,06,22,13,41,25.20
2002,06,22,13,42,25.20
2002,06,22,13,43,25.30
2002,06,22,13,44,25.40
2002,06,22,13,45,25.50
2002,06,22,13,46,25.50
2002,06,22,13,47,25.40
2002,06,22,13,48,25.50
2002,06,22,13,49,25.40
2002,06,22,13,50,25.30
2002,06,22,13,51,25.00
2002,06,22,13,52,25.00
2002,06,22,13,53,25.00
2002,06,22,13,54,24.90
2002,06,22,13,55,25.00
2002,06,22,13,56,24.90
2002,06,22,13,57,24.80
2002,06,22,13,58,24.70
2002,06,22,13,59,24.70
2002,06,22,14,00,24.90
2002,06,22,14,01,24.90
2002,06,22,14,02,24.80
2002,06,22,14,03,24.80
2002,06,22,14,04,24.80
2002,06,22,14,05,24.60
2002,06,22,14,06,24.70
2002,06,22,14,07,24.70
2002,06,22,14,08,24.60
2002,06,22,14,09,24.70
2002,06,22,14,10,24.80
2002,06,22,14,11,24.60
2002,06,22,14,12,24.50
2002,06,22,14,13,24.50
2002,06,22,14,14,24.60
2002,06,22,14,15,24.60
2002,06,22,14,16,24.80
2002,06,22,14,17,25.00
2002,06,22,14,18,24.90
2002,06,22,14,19,24.70
2002,06,22,14,20,24.90
2002,06,22,14,21,24.90
2002,06,22,14,22,24.90
2002,06,22,14,23,24.90
2002,06,22,14,24,24.90
2002,06,22,14,25,24.90
2002,06,22,14,26,24.90
2002,06,22,14,27,24.80
2002,06,22,14,28,24.80
2002,06,22,14,29,24.70
2002,06,22,14,30,24.70
2002,06,22,14,31,24.80
2002,06,22,14,32,24.80
2002,06,22,14,33,24.60
2002,06,22,14,34,24.60
2002,06,22,14,35,24.70
2002,06,22,14,36,24.60
2002,06,22,14,37,24.70
2002,06,22,14,38,24.60
2002,06,22,14,39,24.60
2002,06,22,14,40,24.30
2002,06,22,14,41,24.10
2002,06,22,14,42,24.00
2002,06,22,14,43,24.00
2002,06,22,14,44,23.80
2002,06,22,14,45,23.70
2002,06,22,14,46,23.70
2002,06,22,14,47,23.70
2002,06,22,14,48,23.60
2002,06,22,14,49,23.50
2002,06,22,14,50,23.60
2002,06,22,14,51,23.80
2002,06,22,14,52,23.90
2002,06,22,14,53,24.10
2002,06,22,14,54,24.20
2002,06,22,14,55,24.20
2002,06,22,14,56,24.20
2002,06,22,14,57,24.40
2002,06,22,14,58,24.50
2002,06,22,14,59,24.60
2002,06,22,15,00,24.40
2002,06,22,15,01,24.40
2002,06,22,15,02,24.40
2002,06,22,15,03,24.20
2002,06,22,15,04,24.20
2002,06,22,15,05,24.10
2002,06,22,15,06,24.20
2002,06,22,15,07,24.10
2002,06,22,15,08,24.00
2002,06,22,15,09,23.90
2002,06,22,15,10,23.70
2002,06,22,15,11,23.70
2002,06,22,15,12,23.70
2002,06,22,15,13,23.50
2002,06,22,15,14,23.40
2002,06,22,15,15,23.50
2002,06,22,15,16,23.50
2002,06,22,15,17,23.50
2002,06,22,15,18,23.50
2002,06,22,15,19,23.50
2002,06,22,15,20,23.40
2002,06,22,15,21,23.30
2002,06,22,15,22,23.40
2002,06,22,15,23,23.40
2002,06,22,15,24,23.50
2002,06,22,15,25,23.60
2002,06,22,15,26,23.70
2002,06,22,15,27,23.90
2002,06,22,15,28,23.70
2002,06,22,15,29,23.90
2002,06,22,15,30,23.90
2002,06,22,15,31,23.80
2002,06,22,15,32,23.60
2002,06,22,15,33,23.60
2002,06,22,15,34,23.50
2002,06,22,15,35,23.30
2002,06,22,15,36,23.30
2002,06,22,15,37,23.40
2002,06,22,15,38,23.40
2002,06,22,15,39,23.30
2002,06,22,15,40,23.30
2002,06,22,15,41,23.30
2002,06,22,15,42,23.30
2002,06,22,15,43,23.30
2002,06,22,15,44,23.10
2002,06,22,15,45,23.20
2002,06,22,15,46,23.20
2002,06,22,15,47,23.30
2002,06,22,15,48,23.40
2002,06,22,15,49,23.30
2002,06,22,15,50,23.20
2002,06,22,15,51,23.30
2002,06,22,15,52,23.40
2002,06,22,15,53,23.40
2002,06,22,15,54,23.30
2002,06,22,15,55,23.20
2002,06,22,15,56,23.20
2002,06,22,15,57,23.10
2002,06,22,15,58,23.10
2002,06,22,15,59,23.20
2002,06,22,16,00,23.20
2002,06,22,16,01,23.20
2002,06,22,16,02,23.30
2002,06,22,16,03,23.30
2002,06,22,16,04,23.30
2002,06,22,16,05,23.40
2002,06,22,16,06,23.50
2002,06,22,16,07,23.50
2002,06,22,16,08,23.50
2002,06,22,16,09,23.60
2002,06,22,16,10,23.60
2002,06,22,16,11,23.70
2002,06,22,16,12,23.60
2002,06,22,16,13,23.60
2002,06,22,16,14,23.70
2002,06,22,16,15,23.90
2002,06,22,16,16,24.00
2002,06,22,16,17,24.00
2002,06,22,16,18,24.10
2002,06,22,16,19,24.20
2002,06,22,16,20,24.20
2002,06,22,16,21,24.30
2002,06,22,16,22,24.50
2002,06,22,16,23,24.70
2002,06,22,16,24,24.80
2002,06,22,16,25,24.90
2002,06,22,16,26,25.00
2002,06,22,16,27,25.00
2002,06,22,16,28,24.90
2002,06,22,16,29,24.90
2002,06,22,16,30,25.00
2002,06,22,16,31,25.00
2002,06,22,16,32,24.90
2002,06,22,16,33,25.00
2002,06,22,16,34,24.90
2002,06,22,16,35,24.90
2002,06,22,16,36,25.00
2002,06,22,16,37,24.80
2002,06,22,16,38,24.80
2002,06,22,16,39,24.60
2002,06,22,16,40,24.20
2002,06,22,16,41,24.20
2002,06,22,16,42,24.20
2002,06,22,16,43,24.00
2002,06,22,16,44,24.10
2002,06,22,16,45,24.00
2002,06,22,16,46,24.00
2002,06,22,16,47,24.10
2002,06,22,16,48,24.10
2002,06,22,16,49,24.10
2002,06,22,16,50,24.10
2002,06,22,16,51,24.10
2002,06,22,16,52,24.10
2002,06,22,16,53,24.30
2002,06,22,16,54,24.30
2002,06,22,16,55,24.40
2002,06,22,16,56,24.50
2002,06,22,16,57,24.50
2002,06,22,16,58,24.60
2002,06,22,16,59,24.60
2002,06,22,17,00,24.60
2002,06,22,17,01,24.80
2002,06,22,17,02,24.80
2002,06,22,17,03,24.90
2002,06,22,17,04,25.00
2002,06,22,17,05,25.20
2002,06,22,17,06,25.30
2002,06,22,17,07,25.30
2002,06,22,17,08,25.40
2002,06,22,17,09,25.40
2002,06,22,17,10,25.60
2002,06,22,17,11,25.60
2002,06,22,17,12,25.40
2002,06,22,17,13,25.20
2002,06,22,17,14,25.20
2002,06,22,17,15,25.20
2002,06,22,17,16,25.10
2002,06,22,17,17,25.00
2002,06,22,17,18,25.00
2002,06,22,17,19,24.90